Regional Weather Roundup
Issued by NWS

Home | Current Version | Previous Version | Text Only | Print | Product List | Glossary Off
Versions: 1 2 3 4 5 6 7 8 9 10 11 12 13 14 15 16 17 18 19 20 21 22 23 24 25 26 27 28 29 30 31 32 33 34 35 36 37 38 39 40 41 42 43 44 45 46 47 48 49 50

000
ASUS43 KMPX 170901
RWRMN
WEATHER ROUNDUP FOR MINNESOTA
NATIONAL WEATHER SERVICE TWIN CITIES/CHANHASSEN MN
300 AM CST FRI NOV 17 2017


NOTE: "FAIR" INDICATES FEW OR NO CLOUDS BELOW 12,000 FEET WITH NO
SIGNIFICANT WEATHER AND/OR OBSTRUCTIONS TO VISIBILITY. N/A MEANS
CURRENT SKY AND/OR WEATHER CONDITIONS ARE NOT AVAILABLE.

MNZ060>063-068>070-171000-
   Twin Cities Metro

CITY           SKY/WX    TMP DP  RH WIND       PRES   REMARKS
TWIN CITIES    CLOUDY    35  29  78 SE17G29   29.84F WCI  25
ST PAUL        PTCLDY    35  29  78 SE18G26   29.86F WCI  24
CRYSTAL        CLOUDY    35  26  69 SE17G29   29.80F WCI  25
BLAINE         CLOUDY    36  30  80 SE18G26   29.81F
LAKEVILLE      PTCLDY    34  28  80 SE15      29.84F WCI  24
EDEN PRAIRIE   CLOUDY    36  28  73 SE17      29.81F
SOUTH ST PAUL  PTCLDY    35  28  75 SE10G18   29.85F WCI  28
LAKE ELMO      FAIR      34  30  86 SE15G22   29.87F WCI  24
$$
MNZ001>005-007-008-013>017-022>024-027-028-171000-
   Northwest Minnesota

CITY           SKY/WX    TMP DP  RH WIND       PRES   REMARKS
BEMIDJI        CLOUDY    30  26  83 S9        29.67F WCI  22
HALLOCK        MIX PCPN  34  30  86 S18G29    29.54F WCI  23
ROSEAU         LGT SNOW  32  27  80 S15G21    29.60F WCI  22
WARROAD        LGT SNOW  30  27  86 S13G18    29.61F WCI  20
CROOKSTON      CLOUDY    36  28  75 S18       29.62F
FOSSTON        CLOUDY    30  25  80 S9        29.65R WCI  22
DETROIT LAKES  CLOUDY    32  28  86 SE10      29.66R WCI  24
MOORHEAD       CLEAR     32  27  80 S10       29.65R WCI  24
PARK RAPIDS    PTCLDY    31  26  82 SE13      29.67F WCI  21
MAHNOMEN       FAIR      32  27  81 S13       29.63S WCI  22
$$
MNZ006-009>011-018-025>026-171000-
   North Central Minnesota

CITY           SKY/WX    TMP DP  RH WIND       PRES   REMARKS
BAUDETTE       CLOUDY    31  25  78 S14G22    29.65F WCI  21
FLAG ISLAND    LGT SNOW  30  27  86 S26       29.61S WCI  16
INTL FALLS     CLOUDY    31  23  72 S8G20     29.71F WCI  23
WASKISH        CLOUDY    32  27  80 S8G17     29.67F WCI  25
BIG FORK       CLOUDY    30  25  80 SE9       29.71F WCI  22
LONGVILLE      CLOUDY    32  27  80 SE10G17   29.70F WCI  24
GRAND RAPIDS   CLOUDY    31  26  82 SE16G22   29.75F WCI  20
CRANE LAKE     MOCLDY    28  25  86 S7        29.79F WCI  21
ORR            CLOUDY    30  23  74 SE12G21   29.74S WCI  21
COOK           CLOUDY    30  25  80 SE13G20   29.78R WCI  20
WALKER         PTSUNNY   32  26  78 S13G21    29.67F WCI  22
$$
MNZ012-019>021-037-171000-
   Northeast Minnesota

CITY           SKY/WX    TMP DP  RH WIND       PRES   REMARKS
DULUTH         CLOUDY    31  26  82 SE16G25   29.82F WCI  20
ELY            CLOUDY    30  25  80 SE16G25   29.79F WCI  19
HIBBING        CLOUDY    29  24  82 S15G23    29.78F WCI  18
EVELETH        CLOUDY    30  23  74 SE9G18    29.79F WCI  22
DULUTH HARBOR  CLOUDY    36  27  69 SE7       29.88F
TWO HARBORS    CLOUDY    34  28  80 E8        29.86F WCI  27
SILVER BAY     CLOUDY    32  27  80 SE7       29.89F WCI  26
GRAND MARAIS     N/A     34  30  85 SE14      29.97F WCI  25
G MARAIS ARPRT CLOUDY    25  21  86 SE8G18    29.90F WCI  16
$$
MNZ029>031-032-039>041-046>048-054>057-064-171000-
   West Central Minnesota

CITY           SKY/WX    TMP DP  RH WIND       PRES   REMARKS
FERGUS FALLS   CLOUDY    34  27  75 S16G22    29.67R WCI  23
WHEATON        CLOUDY    34  27  75 SE13      29.64R WCI  25
MORRIS         CLOUDY    34  28  80 SE21      29.63R WCI  22
ALEXANDRIA     CLOUDY    35  28  75 S15G24    29.68S WCI  25
ELBOW LAKE     FAIR      33  28  82 SE20G26   29.64S HAZE    WCI  22
WADENA         PTCLDY    30  27  86 SE12G17   29.67F WCI  21
GLENWOOD       CLOUDY    34  28  80 SE16G22   29.68S WCI  23
APPLETON       CLOUDY    37  28  70 SE10G17   29.63S
BENSON         CLOUDY    36  28  75 S14G24    29.67S
ORTONVILLE     CLOUDY    34  27  75 MISG      29.61R
MADISON        CLOUDY    39  30  70 SE13      29.60F
WILLMAR        FAIR      36  30  80 SE18G24   29.69S
$$
MNZ033>034-036-042>043-049>051-058-059-171000-
   Central Minnesota

CITY           SKY/WX    TMP DP  RH WIND       PRES   REMARKS
ST CLOUD       PTCLDY    35  28  75 SE20G26   29.74F WCI  24
SAUK CENTRE    PTSUNNY   33  28  82 SE16      29.70F WCI  23
PAYNESVILLE    CLOUDY    35  30  82 SE18G25   29.71F WCI  24
AITKIN         CLOUDY    32  27  80 SE14G23   29.73F WCI  22
PINE RIVER     CLOUDY    30  25  80 S13       29.76S WCI  20
BRAINERD       CLOUDY    34  26  72 SE15      29.73F WCI  24
STAPLES        CLOUDY    30  27  86 SE8       29.71R WCI  23
LONG PRAIRIE   MOCLDY    32  28  86 SE16      29.71S WCI  21
LITTLE FALLS   MIX PCPN  32  25  74 SE12G17   29.74S WCI  23
LITCHFIELD     CLOUDY    36  30  80 SE15G25   29.73F
BUFFALO        CLOUDY    36  28  73 SE14G25   29.78F
MAPLE LAKE     PTCLDY    36  30  80 SE13G23   29.76F
HUTCHINSON     PTCLDY    35  30  82 SE16G25   29.75F WCI  25
$$
MNZ037-044-045-052-053-171000-
   East Central Minnesota

CITY           SKY/WX    TMP DP  RH WIND       PRES   REMARKS
PRINCETON      CLOUDY    36  28  75 SE17G23   29.78F
MORA           LGT RAIN  34  28  80 SE13G20   29.82F WCI  25
CAMBRIDGE      CLOUDY    36  28  75 SE13G21   29.80F
RUSH CITY      LGT RAIN  33  28  83 SE16G25   29.83F WCI  22
MOOSE LAKE     CLOUDY    32  27  80 S8        29.80F WCI  25
HINCKLEY       CLOUDY    34  28  80 SE12G22   29.82F WCI  25
CLOQUET        CLOUDY    32  25  74 SE9G20    29.82F WCI  24
MCGREGOR       CLOUDY    32  28  86 SE14G24   29.76F WCI  22
$$
MNZ071>073-080-081-089-090-097-098-171000-
   Southwest Minnesota

CITY           SKY/WX    TMP DP  RH WIND       PRES   REMARKS
MONTEVIDEO     CLOUDY    36  28  75 S14G20    29.63F
GRANITE FALLS  CLOUDY    39  31  73 SE20G26   29.66F
CANBY          CLOUDY    41  31  67 S15G24    29.59F
MARSHALL       CLOUDY    38  29  70 S24G35    29.61S
REDWOOD FALLS  CLOUDY    36  28  73 SE23G31   29.68F
OLIVIA         CLOUDY    36  30  80 SE16G22   29.69S
PIPESTONE      CLOUDY    36  28  75 S18G26    29.61F
WINDOM           N/A     37  23  56 SE20G35   29.68F
WORTHINGTON    CLOUDY    34  28  79 S24G31    29.67F WCI  21
JACKSON        CLOUDY    36  30  80 S24G39    29.73S
SLAYTON        CLOUDY    34  29  82 S21       29.66R WCI  23
$$
MNZ065>067-074>077-082>085-091>093-171000-
   South Central Minnesota

CITY           SKY/WX    TMP DP  RH WIND       PRES   REMARKS
MANKATO        CLOUDY    34  29  82 SE22G30   29.78F WCI  22
NEW ULM        CLOUDY    36  28  75 S21G36    29.74F
ST JAMES       CLOUDY    34  28  80 SE22      29.75F WCI  22
FAIRMONT       CLOUDY    34  29  82 SE29G36   29.75F WCI  20
GLENCOE        PTCLDY    36  30  79 SE18      29.76F
FARIBAULT      CLOUDY    34  28  80 SE16G23   29.83F WCI  23
OWATONNA       PTCLDY    34  28  80 SE24G32   29.83F WCI  21
WASECA         CLOUDY    34  30  86 SE17G28   29.83F WCI  23
ALBERT LEA     CLOUDY    34  28  80 SE20G26   29.86F WCI  22
$$
MNZ078>079-086>088-094>096-171000-
   Southeast Minnesota

CITY           SKY/WX    TMP DP  RH WIND       PRES   REMARKS
ROCHESTER      CLOUDY    33  29  85 SE24G31   29.91F WCI  20
RED WING       CLOUDY    36  27  69 SE15G24   29.91F
STANTON        CLOUDY    35  29  79 SE15G21   29.85F WCI  26
DODGE CENTER   CLOUDY    32  28  86 SE22      29.88F WCI  19
WINONA         CLOUDY    36  30  80 S7        30.01F
AUSTIN         CLOUDY    34  28  80 SE13G20   29.90F WCI  25
PRESTON        CLOUDY    32  28  84 SE15      29.96F WCI  21
$$
ABBREVIATIONS USED IN REMARKS
   TC - TEMPERATURES IN CELSIUS
  WCI - WIND CHILL INDEX
   HX - HEAT INDEX
  VSB - VISIBILITY
$$




USA.gov is the U.S. government's official web portal to all federal, state and local government web resources and services.